Observations for Trim Market St
| Time | AQI | Temp °C | Hum % | Pres Pa | CO μg/m³ | H₂S μg/m³ | NO μg/m³ | NO₂ μg/m³ | O₃ μg/m³ | SO₂ μg/m³ | PM1 μg/m³ | PM2.5 μg/m³ | PM10 μg/m³ |
|---|---|---|---|---|---|---|---|---|---|---|---|---|---|
| Friday 10 July 2026 | |||||||||||||
| 19:42 | 1 | 28 | 48 | 58,377 | 0 | 1.59 | 0 | 10.06 | 18.43 | 0 | 0.71 | 3.57 | 3.74 |
| 19:41 | 1 | 28 | 48 | 58,556 | 0 | 0.73 | 0 | 9.77 | 18.84 | 0 | 1.43 | 4.1 | 4.49 |
| 19:40 | 1 | 28.1 | 48 | 58,540 | 0 | 2.17 | 0 | 9.25 | 20.51 | 0 | 1.43 | 3.58 | 3.73 |
| 19:39 | 1 | 28.1 | 48 | 58,570 | 0 | 2.54 | 0 | 9.95 | 19.79 | 0 | 2.14 | 4.1 | 4.49 |
| 19:38 | 1 | 28.1 | 48 | 58,759 | 0 | 1.18 | 0 | 10.36 | 16.49 | 0 | 1.43 | 4.62 | 5.25 |
| 19:37 | 1 | 28.1 | 48 | 58,931 | 0 | 1.98 | 0 | 9.28 | 18.29 | 0 | 1.43 | 4.11 | 4.49 |
| 19:36 | 1 | 28.2 | 48 | 59,010 | 0 | 3.12 | 0 | 11.95 | 19.33 | 0 | 1.43 | 3.59 | 3.73 |
| 19:35 | 1 | 28.2 | 47 | 59,176 | 0 | 1.6 | 0 | 9.27 | 20.38 | 0 | 1.43 | 4.12 | 5.24 |
| 19:34 | 1 | 28.2 | 47 | 59,292 | 0 | 1.6 | 0 | 9.17 | 19.98 | 0 | 2.85 | 4.64 | 5.24 |
| 19:33 | 1 | 28.3 | 47 | 59,391 | 0 | 0.26 | 0 | 8.06 | 19.02 | 0 | 1.43 | 3.61 | 3.72 |
| 19:32 | 1 | 28.3 | 47 | 59,352 | 0 | 1.51 | 0 | 9.26 | 18.71 | 0 | 1.43 | 3.61 | 3.72 |
| 19:31 | 1 | 28.3 | 47 | 59,409 | 0 | 1.78 | 0 | 9.47 | 19.85 | 0 | 2.85 | 4.65 | 5.24 |
| 19:30 | 1 | 28.4 | 47 | 59,435 | 0 | 2.34 | 0 | 10.15 | 20.24 | 0 | 1.43 | 4.13 | 4.48 |
| 19:29 | 1 | 28.4 | 47 | 59,601 | 0 | 0 | 0 | 8.26 | 19.9 | 0 | 1.43 | 4.14 | 5.24 |
| 19:27 | 1 | 28.5 | 47 | 59,711 | 0 | 0.86 | 0 | 8.15 | 17.61 | 0 | 2.14 | 4.14 | 4.47 |
| 19:26 | 1 | 28.5 | 47 | 59,636 | 0 | 3.32 | 0 | 9.55 | 19.6 | 0 | 2.14 | 4.66 | 5.23 |
| 19:25 | 1 | 28.6 | 47 | 59,849 | 0 | 4.7 | 0 | 11.64 | 22.1 | 0 | 1.43 | 4.15 | 4.47 |
| 19:24 | 1 | 28.6 | 47 | 60,207 | 0 | 3.74 | 0 | 10.85 | 19.75 | 0 | 2.14 | 5.2 | 6 |
| 19:22 | 1 | 28.7 | 46 | 60,718 | 0 | 2.21 | 0 | 10.44 | 20.11 | 0 | 2.14 | 5.2 | 5.99 |
| 19:21 | 1 | 28.7 | 46 | 60,757 | 0 | 2.05 | 0 | 10.44 | 14.65 | 0 | 2.85 | 5.2 | 5.99 |